Simultaneous Nadir Overpasses (SNOs) Predictions

Prediction of SNOs between AQUA and METOP-C Satellite Orbit:

Table of predicted SNOs for the next 14.0 days since TLE Epoch: 6/25/2022
Index Date (AQUA) Time (AQUA) Lat,Lon (AQUA) SZA (AQUA ) Date (METOP-C) Time (METOP-C) Lat,Lon (METOP-C) SZA (METOP-C ) Distance(km) Time Diff (sec)
1 06/27/2022 06:43:29 -73.90,-106.14 129.40 06/27/2022 06:43:01 -73.91,-106.23 129.38 3.19 28
2 06/27/2022 07:32:58 74.00, 61.29 50.70 06/27/2022 07:33:38 74.00, 61.31 50.70 0.54 40
3 06/30/2022 01:27:45 73.88, 152.86 50.72 06/30/2022 01:26:41 73.89, 152.79 50.74 2.30 64
4 06/30/2022 02:17:12 -73.98, -39.72 129.18 06/30/2022 02:17:22 -73.99, -39.65 129.17 2.25 10
5 06/30/2022 03:06:45 74.28, 127.22 51.16 06/30/2022 03:07:55 74.27, 128.38 51.09 35.03 70
6 07/02/2022 21:01:26 73.93,-140.66 50.97 07/02/2022 21:01:01 73.96,-140.64 51.01 3.30 25
7 07/02/2022 21:50:53 -74.03, 26.77 128.93 07/02/2022 21:51:43 -74.01, 26.80 128.95 2.30 50
8 07/05/2022 15:45:39 -73.90, 118.36 128.82 07/05/2022 15:44:46 -73.90, 118.27 128.81 2.97 53
9 07/05/2022 16:35:08 74.00, -74.23 51.30 07/05/2022 16:35:23 73.98, -74.20 51.27 3.31 15
10 07/05/2022 17:24:46 -74.66, 91.86 127.99 07/05/2022 17:25:52 -74.66, 94.87 128.10 88.69 66
11 07/08/2022 10:29:44 73.38, 18.44 50.93 07/08/2022 10:28:37 73.31, 16.00 50.97 78.40 67
12 07/08/2022 11:19:20 -73.94,-175.13 128.47 07/08/2022 11:19:07 -73.96,-175.18 128.45 2.41 13
13 07/08/2022 12:08:49 74.05, -7.73 51.65 07/08/2022 12:09:44 74.04, -7.65 51.63 2.81 55



Historial Predications of SNOs between AQUA and METOP-C
